Wind_Speed
5 5 4 5 5 5 5 5 5 4 4 3 3 3 3 3 3 2 2 2 2 3 3 3 3 3 2 2 3 3 2 2 2 2 3 3 4 4 4 5 5 5 5
4 4 4 5 5 4 4 4 4 4 3 3 3 3 2 2 2 1 1 1 2 2 2 2 2 2 3 3 3 3 3 3 4 4 4 4 5 5 6 6 6 6 6
3 3 3 4 4 3 3 2 3 2 2 2 1 1 1 1 1 1 1 1 2 2 3 3 3 3 4 4 5 5 5 5 5 5 5 6 6 7 8 8 8 8 8
2 2 2 2 2 3 2 2 2 2 2 1 0 0 1 1 1 2 2 3 3 4 4 4 4 5 5 6 6 6 7 7 7 7 7 7 8 8 9 10 10 10 10
2 2 1 1 2 2 2 2 1 1 1 2 2 2 2 3 3 4 4 4 5 5 5 5 6 6 7 7 7 8 8 9 9 9 9 8 9 10 10 10 11 11 12
2 2 2 2 2 2 2 2 2 2 2 3 3 4 4 4 5 5 5 6 6 7 7 7 7 8 8 9 9 10 10 10 11 11 11 11 10 11 12 12 13 14 14
1 2 3 3 3 3 3 3 4 4 4 4 5 5 5 6 6 6 7 7 8 9 9 9 10 10 11 11 11 11 12 13 13 13 13 13 13 13 14 14 15 16 16
2 3 4 4 4 5 5 5 5 5 5 5 6 7 7 8 8 8 8 9 10 10 11 11 11 12 12 13 13 13 13 14 14 14 14 14 15 16 17 17 17 17 18
5 5 5 5 6 6 7 7 6 6 7 7 8 9 9 10 11 11 11 11 11 11 12 12 12 13 14 14 14 15 15 15 15 15 16 16 16 17 18 19 19 19 19
5 6 6 7 8 8 8 9 8 9 9 10 10 11 11 12 13 13 13 13 13 14 14 14 14 15 15 15 16 17 17 17 16 17 17 18 18 18 19 19 19 20 21
6 7 7 8 9 9 9 10 10 11 11 12 12 13 13 13 14 14 15 16 16 16 16 16 16 16 17 16 17 17 18 18 18 18 19 20 20 21 21 21 21 21 22
7 7 8 8 9 9 10 11 11 12 12 12 13 13 13 13 14 14 15 16 17 17 17 17 17 16 17 17 18 18 19 19 20 20 20 21 21 21 21 23 23 24 24
8 8 9 9 9 9 10 10 11 11 12 13 13 13 13 13 13 14 15 15 16 17 17 17 17 17 18 18 19 19 20 21 21 22 21 22 22 22 23 24 24 25 25
8 9 9 8 8 9 9 10 10 11 12 13 13 13 13 13 14 14 15 16 16 17 18 18 18 18 19 19 20 20 21 22 22 22 23 23 23 24 25 25 26 27 27
10 10 10 9 9 9 10 10 10 11 12 12 13 14 14 14 14 15 15 16 16 17 18 18 19 20 20 20 21 21 22 22 23 23 24 24 25 26 26 27 27 28 30
11 12 12 11 11 11 11 11 12 12 12 13 13 13 13 14 14 14 14 15 16 17 17 19 20 21 21 21 21 22 23 23 24 25 25 26 26 27 27 28 29 29 30
12 13 13 12 12 12 12 12 12 13 13 13 13 13 14 15 15 15 15 16 17 18 19 20 21 21 21 21 22 23 24 25 25 26 26 27 28 28 29 30 30 31 31
14 14 14 14 13 14 14 14 14 14 14 14 15 15 15 16 17 18 17 17 19 20 21 21 22 22 23 24 25 25 25 26 27 27 28 28 29 30 31 31 32 32 32
16 16 16 15 15 15 15 15 15 15 16 16 17 17 18 19 19 19 19 19 21 22 22 23 24 24 25 25 26 27 27 28 28 29 29 30 30 31 31 31 32 32 33
17 17 17 17 17 17 17 17 17 17 18 18 19 19 19 19 19 20 20 21 22 22 23 24 25 25 26 26 27 27 28 28 29 29 30 30 30 30 30 31 31 32 33
17 17 17 17 17 17 17 18 18 18 18 18 19 19 19 20 20 21 21 21 22 23 24 25 26 26 26 27 27 28 28 28 29 30 30 30 31 31 31 32 32 32 33
17 17 18 18 18 18 18 18 18 17 17 18 19 20 20 21 21 21 22 22 23 24 25 25 25 26 26 27 28 28 28 29 30 30 30 30 31 31 32 33 33 33 34
18 18 18 18 18 18 18 18 18 17 18 19 20 22 22 22 23 23 23 23 24 24 25 25 25 26 27 27 28 29 29 30 30 30 31 31 32 33 34 34 34 35 35
18 17 17 17 17 17 17 17 17 18 18 19 20 21 22 22 22 23 24 24 24 24 24 25 25 26 27 28 29 29 30 30 30 30 31 32 33 34 34 35 35 36 36
16 17 16 16 17 17 16 17 17 18 19 19 20 21 21 21 21 22 23 23 23 24 25 26 27 27 27 28 29 30 30 30 30 31 31 32 33 34 34 35 35 35 35
16 16 16 17 17 17 16 17 18 18 19 19 20 20 20 20 21 22 22 23 24 25 26 27 27 27 27 28 29 29 29 30 30 31 32 33 33 34 34 34 34 34 34
Wind_Direction
134 139 139 141 138 131 125 118 117 119 115 106 91 81 82 81 83 82 81 78 69 60 52 52 45 41 34 27 13 1 329 311 288 274 257 252 246 241 244 248 252 258 264
138 136 129 140 144 139 132 128 129 129 125 114 95 81 74 76 68 60 52 35 30 24 17 15 14 358 348 350 341 338 321 306 291 280 270 264 258 252 251 252 254 258 263
137 136 137 144 148 148 144 138 134 144 144 133 110 91 61 56 31 5 343 329 339 344 343 339 337 331 327 326 320 317 312 305 290 285 282 273 268 263 258 258 260 260 261
143 146 148 154 168 170 169 162 160 168 173 181 218 320 335 316 313 309 303 303 304 309 319 322 320 319 319 317 312 308 307 306 302 293 295 285 272 268 267 265 266 266 265
165 186 192 193 207 207 209 198 187 203 217 243 271 289 295 297 299 300 295 296 297 299 302 307 306 307 307 308 306 303 303 303 302 299 297 292 284 278 277 276 273 273 271
187 221 230 228 228 228 234 229 231 238 250 263 280 289 292 296 293 291 293 294 296 295 295 297 299 301 301 300 301 300 297 295 297 295 292 288 284 279 278 278 276 274 272
253 262 243 239 243 248 248 249 257 259 267 275 283 289 293 294 294 292 293 294 295 295 294 294 296 296 295 293 294 296 295 292 292 291 286 286 284 280 277 278 277 276 274
286 273 272 263 255 258 260 258 266 268 268 276 282 287 294 296 294 294 294 294 293 292 292 291 292 293 294 291 289 290 291 293 291 289 286 287 283 281 281 278 277 276 275
310 294 283 277 271 265 262 262 264 271 272 275 281 285 288 290 291 291 292 292 292 291 289 289 290 291 293 292 288 288 291 291 292 289 287 286 284 282 281 280 279 277 276
311 301 290 281 275 268 267 269 269 274 278 282 284 287 288 288 286 287 291 292 291 290 288 287 287 287 288 290 289 288 290 291 291 291 287 285 286 283 280 278 280 281 279
313 306 300 292 284 272 272 275 276 276 278 282 285 287 288 288 288 286 287 290 290 289 288 289 286 284 285 288 288 288 289 289 288 287 287 285 284 283 280 279 279 280 279
319 315 309 301 294 281 281 281 279 279 278 283 286 285 285 285 286 286 286 290 292 291 290 289 289 287 289 290 289 290 290 289 288 288 289 288 285 284 281 281 280 281 279
311 313 314 299 296 292 289 288 283 283 282 282 286 288 287 287 289 290 289 290 292 293 293 292 291 289 291 291 291 291 291 291 290 289 289 289 286 284 282 282 281 280 279
316 313 313 300 294 299 299 295 289 289 287 285 286 290 292 293 290 291 291 291 291 293 294 294 292 292 292 292 292 291 292 292 291 289 288 287 286 285 282 281 280 280 280
314 311 310 302 297 298 302 300 297 296 295 293 289 289 290 289 290 289 291 292 293 294 295 294 294 297 297 294 293 293 293 291 290 292 293 292 290 289 286 283 283 284 283
310 307 304 302 297 296 296 297 297 294 294 293 293 292 293 292 291 294 297 297 296 295 296 296 298 301 299 297 297 297 297 296 295 294 294 293 292 291 289 288 287 287 286
308 303 299 298 297 296 296 296 297 296 292 291 294 296 297 294 293 292 293 296 295 294 296 296 297 298 298 297 299 300 299 297 296 296 296 294 292 292 291 290 289 289 289
303 302 300 297 297 297 295 295 295 293 294 294 294 294 296 295 294 294 294 297 297 296 296 296 297 298 298 298 298 299 298 297 296 296 296 295 294 293 292 291 290 290 290
299 299 298 295 296 297 295 295 295 293 291 292 295 297 297 297 297 295 296 297 299 300 300 299 298 299 299 299 298 299 297 297 296 296 295 296 296 295 294 292 292 292 292
294 295 296 297 297 296 296 295 294 293 291 290 292 295 298 298 298 298 297 297 300 302 303 302 302 302 301 300 301 300 299 299 298 297 296 297 298 297 296 295 294 293 293
296 294 295 295 295 294 294 296 292 292 291 290 290 292 295 298 299 299 300 300 302 303 303 303 302 303 302 302 301 300 300 300 300 300 299 298 298 298 297 296 295 294 293
299 297 295 293 291 293 292 294 291 288 288 289 291 293 295 295 297 299 301 301 302 302 302 301 302 303 304 304 303 302 302 302 301 301 300 298 297 296 297 297 296 295 295
301 298 297 295 293 295 293 290 289 289 289 291 293 294 295 294 294 297 299 301 301 301 302 302 304 305 304 305 304 304 303 303 303 303 302 300 298 297 297 298 297 297 297
302 301 298 297 296 296 294 292 290 291 292 295 295 295 296 295 296 298 300 302 304 303 304 304 305 305 305 304 305 306 306 305 305 304 303 302 301 301 300 299 299 299 298
301 301 299 296 299 298 295 295 295 293 294 295 297 298 297 296 298 301 302 305 307 306 307 307 307 306 305 304 306 307 307 306 306 305 304 304 304 303 302 301 300 300 299
300 301 301 299 300 301 298 295 298 297 297 297 298 300 299 300 303 303 304 307 308 308 308 308 307 306 305 306 308 308 309 308 308 307 305 304 304 304 303 302 302 301 301
Height
5912 5912 5913 5913 5913 5913 5913 5913 5914 5914 5914 5915 5915 5915 5915 5915 5914 5914 5914 5914 5914 5913 5913 5912 5912 5911 5910 5910 5909 5909 5908 5907 5907 5907 5906 5906 5905 5905 5905 5905 5905 5905 5905
5913 5913 5913 5913 5913 5914 5914 5914 5914 5915 5915 5915 5915 5915 5915 5915 5915 5915 5915 5914 5914 5914 5913 5913 5912 5911 5910 5910 5909 5908 5907 5907 5906 5906 5905 5905 5905 5904 5904 5904 5904 5904 5903
5914 5914 5914 5914 5914 5915 5915 5915 5915 5915 5915 5916 5916 5916 5915 5915 5915 5915 5915 5914 5914 5914 5913 5912 5912 5911 5910 5909 5908 5908 5907 5906 5905 5905 5904 5904 5903 5903 5903 5902 5902 5902 5902
5914 5914 5914 5915 5915 5915 5915 5915 5916 5916 5916 5916 5916 5916 5916 5915 5915 5915 5915 5914 5914 5913 5913 5912 5911 5911 5910 5909 5908 5907 5906 5905 5904 5903 5902 5902 5901 5901 5901 5901 5900 5900 5899
5914 5915 5915 5915 5915 5915 5915 5915 5916 5916 5916 5916 5916 5916 5915 5915 5915 5914 5914 5914 5913 5913 5912 5911 5910 5910 5909 5908 5907 5906 5905 5904 5903 5902 5901 5900 5899 5899 5899 5898 5898 5897 5897
5915 5915 5915 5915 5914 5915 5915 5915 5915 5915 5915 5916 5915 5915 5915 5914 5914 5914 5913 5913 5912 5911 5911 5910 5909 5908 5907 5906 5905 5904 5903 5902 5901 5900 5899 5898 5897 5897 5896 5896 5895 5894 5894
5915 5915 5915 5915 5914 5915 5915 5915 5915 5915 5915 5915 5915 5914 5914 5913 5913 5912 5912 5911 5911 5910 5909 5908 5907 5906 5905 5904 5903 5902 5901 5900 5899 5898 5897 5895 5894 5894 5893 5893 5892 5891 5890
5914 5914 5914 5914 5914 5914 5914 5914 5914 5914 5914 5914 5914 5913 5913 5913 5911 5911 5910 5909 5909 5908 5907 5906 5905 5904 5903 5902 5901 5899 5898 5897 5896 5895 5894 5893 5891 5891 5890 5889 5888 5887 5886
5913 5913 5913 5913 5913 5913 5913 5913 5913 5912 5912 5912 5912 5912 5911 5911 5910 5909 5908 5907 5906 5905 5904 5903 5902 5901 5900 5899 5898 5896 5895 5894 5893 5891 5890 5889 5888 5887 5886 5885 5884 5883 5882
5913 5912 5912 5911 5911 5911 5911 5911 5910 5910 5911 5910 5910 5909 5909 5908 5907 5906 5905 5904 5903 5902 5901 5900 5899 5898 5896 5895 5894 5893 5892 5891 5889 5888 5887 5885 5884 5883 5882 5881 5880 5879 5878
5911 5911 5910 5910 5909 5909 5909 5909 5908 5908 5908 5908 5907 5907 5906 5905 5904 5903 5902 5901 5899 5898 5897 5896 5895 5894 5892 5891 5890 5889 5887 5886 5885 5884 5882 5881 5879 5878 5877 5876 5875 5874 5872
5910 5909 5909 5908 5908 5907 5907 5906 5906 5905 5905 5905 5904 5903 5903 5902 5901 5899 5898 5897 5896 5895 5893 5892 5891 5889 5888 5887 5885 5884 5883 5882 5880 5879 5877 5876 5874 5873 5872 5871 5869 5868 5867
5909 5908 5907 5906 5906 5905 5904 5903 5903 5902 5902 5902 5901 5900 5899 5898 5897 5896 5895 5893 5892 5891 5889 5888 5887 5885 5884 5882 5881 5880 5878 5877 5875 5873 5872 5870 5869 5867 5866 5865 5863 5862 5861
5907 5906 5905 5904 5903 5903 5902 5901 5900 5900 5899 5898 5897 5897 5896 5895 5894 5892 5891 5890 5888 5887 5886 5884 5883 5881 5879 5878 5876 5875 5873 5872 5870 5868 5866 5864 5863 5861 5860 5858 5857 5855 5854
5905 5904 5903 5902 5902 5901 5900 5899 5898 5897 5896 5895 5894 5893 5892 5891 5890 5889 5888 5886 5885 5884 5882 5880 5878 5877 5875 5873 5872 5870 5868 5866 5864 5862 5860 5858 5856 5855 5853 5851 5849 5848 5846
5903 5902 5901 5900 5899 5898 5897 5897 5896 5895 5893 5892 5891 5889 5889 5888 5886 5885 5884 5883 5881 5880 5878 5876 5874 5872 5870 5868 5866 5865 5863 5861 5858 5856 5854 5852 5850 5848 5846 5844 5842 5840 5838
5901 5900 5898 5897 5897 5896 5895 5893 5892 5891 5890 5889 5887 5886 5885 5884 5883 5882 5880 5879 5877 5876 5874 5872 5869 5867 5865 5863 5861 5859 5857 5854 5852 5850 5847 5845 5843 5841 5838 5836 5834 5832 5829
5898 5897 5896 5895 5894 5892 5891 5890 5889 5888 5887 5886 5884 5883 5882 5881 5879 5878 5876 5875 5873 5871 5870 5867 5865 5862 5860 5858 5855 5853 5850 5848 5845 5843 5840 5838 5836 5833 5830 5828 5826 5823 5821
5895 5894 5893 5891 5890 5889 5888 5887 5886 5885 5883 5882 5881 5879 5878 5876 5875 5873 5872 5870 5868 5866 5864 5862 5859 5857 5854 5852 5849 5847 5844 5841 5838 5836 5833 5830 5828 5825 5822 5819 5817 5814 5812
5892 5890 5889 5888 5887 5885 5884 5883 5882 5880 5879 5878 5877 5875 5874 5872 5870 5869 5867 5865 5863 5860 5858 5856 5853 5851 5848 5845 5843 5840 5837 5834 5831 5828 5825 5822 5820 5817 5814 5811 5808 5805 5803
5888 5886 5885 5884 5882 5881 5880 5879 5877 5876 5875 5874 5872 5871 5869 5867 5866 5864 5862 5860 5858 5855 5853 5850 5847 5844 5842 5839 5836 5833 5830 5827 5824 5821 5818 5815 5812 5809 5806 5802 5799 5796 5793
5884 5882 5881 5879 5878 5877 5876 5874 5873 5871 5870 5869 5868 5866 5865 5863 5861 5859 5856 5854 5852 5849 5847 5844 5841 5838 5835 5832 5830 5826 5823 5821 5817 5814 5810 5807 5804 5801 5798 5794 5791 5788 5784
5880 5878 5877 5875 5874 5872 5871 5870 5868 5867 5866 5864 5863 5861 5859 5857 5855 5853 5851 5848 5846 5843 5841 5838 5835 5832 5829 5826 5823 5820 5816 5813 5810 5806 5803 5799 5796 5792 5789 5786 5782 5778 5775
5876 5874 5873 5871 5869 5868 5866 5865 5864 5862 5861 5859 5858 5856 5853 5851 5849 5847 5845 5842 5839 5837 5834 5832 5829 5825 5822 5819 5816 5813 5809 5806 5802 5799 5795 5792 5788 5784 5780 5776 5773 5768 5765
5872 5871 5869 5867 5866 5864 5862 5861 5859 5858 5856 5854 5853 5850 5848 5846 5843 5841 5839 5837 5834 5831 5828 5825 5822 5818 5815 5812 5809 5805 5802 5798 5795 5791 5787 5783 5779 5775 5771 5767 5763 5759 5755
5868 5867 5866 5864 5862 5860 5858 5857 5856 5854 5852 5850 5848 5845 5843 5840 5838 5836 5834 5831 5828 5825 5822 5819 5815 5812 5808 5805 5802 5798 5794 5791 5787 5783 5778 5774 5770 5766 5762 5758 5754 5750 5746